QPF
0.00 0.00 0.00 0.00 0.00 0.00 0.00 0.00 0.00 0.00 0.00 0.00 0.00 0.00 0.00 0.00 0.01 0.02 0.03 0.03 0.04 0.03 0.03 0.05 0.06 0.05 0.05 0.05 0.03 0.03 0.02 0.02 0.03 0.03 0.02 0.04 0.03 0.02 0.03 0.03 0.02 0.02 0.03 0.03 0.02 0.02 0.02 0.03 0.03
0.00 0.00 0.00 0.00 0.00 0.00 0.00 0.00 0.00 0.00 0.00 0.00 0.00 0.00 0.00 0.00 0.01 0.03 0.03 0.04 0.04 0.03 0.04 0.05 0.07 0.07 0.05 0.04 0.04 0.03 0.02 0.03 0.03 0.03 0.03 0.03 0.04 0.04 0.06 0.03 0.02 0.02 0.03 0.04 0.03 0.03 0.03 0.03 0.02
0.00 0.00 0.00 0.00 0.00 0.00 0.00 0.00 0.00 0.00 0.00 0.00 0.00 0.00 0.00 0.00 0.01 0.03 0.03 0.04 0.03 0.03 0.04 0.05 0.08 0.08 0.07 0.06 0.04 0.03 0.02 0.03 0.04 0.04 0.03 0.04 0.04 0.05 0.05 0.04 0.03 0.02 0.02 0.02 0.02 0.02 0.02 0.02 0.02
0.00 0.00 0.00 0.00 0.00 0.00 0.00 0.00 0.00 0.00 0.00 0.00 0.00 0.00 0.00 0.01 0.01 0.03 0.03 0.03 0.01 0.01 0.02 0.04 0.06 0.07 0.08 0.07 0.05 0.05 0.04 0.04 0.04 0.04 0.05 0.05 0.06 0.02 0.02 0.03 0.03 0.02 0.02 0.02 0.02 0.02 0.01 0.01 0.01
0.00 0.00 0.00 0.00 0.00 0.00 0.00 0.00 0.00 0.00 0.00 0.00 0.00 0.00 0.00 0.01 0.01 0.02 0.02 0.01 0.01 0.01 0.01 0.02 0.03 0.04 0.05 0.05 0.05 0.05 0.06 0.06 0.05 0.05 0.05 0.06 0.07 0.03 0.02 0.01 0.02 0.02 0.03 0.03 0.02 0.02 0.01 0.01 0.01
0.00 0.00 0.00 0.00 0.00 0.00 0.00 0.00 0.00 0.00 0.00 0.00 0.00 0.00 0.01 0.01 0.01 0.02 0.02 0.02 0.01 0.01 0.01 0.01 0.02 0.03 0.03 0.03 0.04 0.04 0.05 0.05 0.04 0.04 0.05 0.05 0.07 0.05 0.04 0.02 0.02 0.02 0.03 0.02 0.02 0.02 0.01 0.01 0.01
0.00 0.00 0.00 0.00 0.00 0.00 0.00 0.00 0.00 0.00 0.00 0.00 0.00 0.00 0.01 0.01 0.01 0.01 0.02 0.01 0.01 0.01 0.01 0.02 0.02 0.02 0.03 0.03 0.03 0.04 0.04 0.04 0.04 0.04 0.05 0.05 0.05 0.06 0.05 0.03 0.02 0.03 0.03 0.03 0.02 0.02 0.01 0.01 0.01
0.00 0.00 0.00 0.00 0.00 0.00 0.00 0.00 0.00 0.00 0.00 0.00 0.00 0.00 0.00 0.01 0.01 0.01 0.02 0.01 0.01 0.01 0.01 0.02 0.02 0.02 0.02 0.02 0.03 0.03 0.03 0.04 0.03 0.03 0.02 0.03 0.04 0.04 0.03 0.03 0.01 0.02 0.02 0.03 0.03 0.03 0.02 0.01 0.01
0.01 0.00 0.00 0.00 0.00 0.00 0.00 0.00 0.00 0.00 0.00 0.00 0.00 0.00 0.00 0.00 0.00 0.01 0.02 0.02 0.03 0.02 0.02 0.02 0.02 0.02 0.02 0.02 0.02 0.02 0.02 0.02 0.02 0.02 0.01 0.02 0.03 0.03 0.03 0.03 0.02 0.02 0.02 0.02 0.03 0.03 0.03 0.02 0.01
0.01 0.00 0.00 0.00 0.00 0.00 0.00 0.00 0.00 0.00 0.00 0.00 0.00 0.00 0.00 0.00 0.01 0.01 0.02 0.03 0.03 0.02 0.02 0.02 0.02 0.02 0.02 0.02 0.02 0.02 0.02 0.03 0.03 0.03 0.03 0.04 0.04 0.03 0.03 0.02 0.03 0.03 0.02 0.02 0.02 0.02 0.02 0.02 0.01
0.01 0.00 0.00 0.00 0.00 0.00 0.00 0.00 0.00 0.00 0.00 0.00 0.00 0.00 0.01 0.00 0.01 0.01 0.02 0.03 0.03 0.03 0.03 0.02 0.03 0.03 0.02 0.02 0.02 0.02 0.02 0.02 0.02 0.02 0.03 0.04 0.04 0.02 0.02 0.02 0.02 0.03 0.04 0.04 0.02 0.02 0.02 0.03 0.03
0.01 0.01 0.00 0.00 0.00 0.00 0.00 0.01 0.00 0.00 0.00 0.00 0.00 0.00 0.00 0.00 0.01 0.01 0.02 0.03 0.03 0.03 0.03 0.03 0.03 0.04 0.03 0.02 0.01 0.01 0.01 0.02 0.02 0.01 0.02 0.03 0.03 0.02 0.02 0.02 0.02 0.02 0.03 0.04 0.04 0.02 0.02 0.02 0.02
0.01 0.01 0.01 0.01 0.00 0.00 0.01 0.01 0.00 0.00 0.00 0.00 0.00 0.00 0.00 0.00 0.01 0.01 0.02 0.02 0.03 0.04 0.04 0.03 0.03 0.04 0.04 0.02 0.01 0.01 0.01 0.01 0.01 0.01 0.01 0.02 0.03 0.04 0.02 0.02 0.02 0.01 0.02 0.03 0.04 0.04 0.02 0.02 0.02
0.01 0.01 0.01 0.01 0.01 0.01 0.01 0.00 0.00 0.01 0.00 0.00 0.01 0.01 0.01 0.01 0.01 0.01 0.01 0.02 0.02 0.03 0.03 0.04 0.03 0.03 0.03 0.03 0.02 0.01 0.01 0.01 0.01 0.02 0.01 0.01 0.02 0.04 0.04 0.03 0.02 0.02 0.02 0.03 0.04 0.04 0.03 0.02 0.02
0.01 0.01 0.01 0.01 0.01 0.01 0.00 0.00 0.01 0.01 0.00 0.00 0.01 0.01 0.01 0.01 0.01 0.01 0.02 0.02 0.02 0.03 0.04 0.04 0.05 0.04 0.03 0.02 0.02 0.02 0.02 0.02 0.01 0.01 0.02 0.02 0.02 0.02 0.04 0.04 0.03 0.02 0.02 0.03 0.05 0.06 0.04 0.03 0.02
0.01 0.01 0.01 0.00 0.00 0.00 0.00 0.00 0.01 0.01 0.01 0.01 0.01 0.01 0.01 0.01 0.01 0.01 0.01 0.02 0.03 0.03 0.03 0.04 0.06 0.06 0.04 0.02 0.02 0.02 0.01 0.02 0.03 0.02 0.02 0.02 0.02 0.03 0.03 0.03 0.03 0.03 0.02 0.03 0.05 0.07 0.08 0.06 0.05
0.02 0.02 0.01 0.00 0.00 0.00 0.00 0.00 0.02 0.02 0.01 0.01 0.01 0.01 0.01 0.01 0.01 0.01 0.01 0.02 0.02 0.03 0.03 0.02 0.04 0.05 0.04 0.03 0.02 0.01 0.01 0.01 0.02 0.03 0.03 0.03 0.03 0.03 0.03 0.03 0.03 0.03 0.03 0.03 0.04 0.06 0.08 0.08 0.07
0.02 0.02 0.01 0.00 0.00 0.00 0.00 0.00 0.01 0.02 0.01 0.01 0.01 0.01 0.01 0.01 0.01 0.01 0.02 0.02 0.02 0.02 0.03 0.02 0.02 0.03 0.04 0.04 0.03 0.01 0.01 0.01 0.02 0.02 0.03 0.04 0.04 0.04 0.03 0.03 0.03 0.03 0.03 0.03 0.03 0.04 0.05 0.06 0.07
0.02 0.02 0.01 0.00 0.00 0.00 0.00 0.01 0.01 0.01 0.01 0.00 0.01 0.01 0.01 0.02 0.02 0.01 0.01 0.02 0.02 0.02 0.02 0.03 0.03 0.03 0.03 0.04 0.05 0.02 0.01 0.01 0.01 0.02 0.02 0.03 0.04 0.04 0.04 0.03 0.04 0.03 0.03 0.03 0.04 0.04 0.05 0.05 0.05
0.01 0.03 0.02 0.01 0.00 0.00 0.00 0.00 0.00 0.01 0.01 0.01 0.01 0.01 0.02 0.02 0.02 0.01 0.01 0.02 0.03 0.04 0.04 0.03 0.03 0.03 0.02 0.03 0.03 0.03 0.02 0.01 0.01 0.01 0.01 0.01 0.01 0.02 0.03 0.03 0.04 0.04 0.03 0.03 0.03 0.05 0.06 0.06 0.06
0.00 0.01 0.02 0.01 0.00 0.00 0.00 0.00 0.00 0.00 0.00 0.00 0.01 0.01 0.02 0.02 0.02 0.02 0.02 0.03 0.04 0.05 0.05 0.04 0.03 0.03 0.03 0.02 0.02 0.02 0.02 0.01 0.00 0.00 0.01 0.01 0.01 0.01 0.01 0.02 0.02 0.03 0.04 0.04 0.03 0.04 0.06 0.08 0.07
0.00 0.00 0.01 0.01 0.01 0.01 0.01 0.00 0.00 0.00 0.00 0.00 0.00 0.01 0.01 0.01 0.01 0.01 0.01 0.02 0.03 0.03 0.03 0.03 0.03 0.03 0.03 0.02 0.02 0.01 0.01 0.01 0.01 0.00 0.00 0.01 0.01 0.01 0.02 0.02 0.02 0.02 0.03 0.03 0.03 0.03 0.05 0.07 0.08
0.00 0.00 0.00 0.01 0.01 0.01 0.01 0.01 0.00 0.00 0.00 0.00 0.00 0.01 0.01 0.01 0.01 0.01 0.01 0.01 0.02 0.02 0.02 0.03 0.03 0.03 0.03 0.02 0.02 0.01 0.01 0.01 0.01 0.01 0.01 0.01 0.01 0.01 0.01 0.01 0.03 0.04 0.04 0.03 0.03 0.03 0.04 0.07 0.08
0.00 0.00 0.01 0.01 0.01 0.01 0.00 0.01 0.01 0.00 0.01 0.00 0.00 0.00 0.01 0.01 0.01 0.01 0.00 0.00 0.01 0.01 0.01 0.01 0.01 0.01 0.02 0.02 0.02 0.01 0.01 0.01 0.01 0.01 0.01 0.01 0.01 0.01 0.01 0.01 0.01 0.02 0.03 0.04 0.04 0.03 0.03 0.05 0.08
0.00 0.01 0.01 0.01 0.01 0.01 0.00 0.00 0.01 0.01 0.00 0.00 0.00 0.00 0.01 0.01 0.01 0.01 0.01 0.00 0.00 0.01 0.01 0.01 0.01 0.01 0.01 0.01 0.01 0.02 0.01 0.01 0.01 0.01 0.01 0.01 0.01 0.01 0.01 0.01 0.01 0.01 0.01 0.02 0.04 0.05 0.05 0.05 0.06
0.01 0.01 0.02 0.01 0.01 0.00 0.00 0.00 0.00 0.00 0.00 0.00 0.00 0.00 0.01 0.02 0.02 0.01 0.00 0.00 0.00 0.01 0.01 0.01 0.01 0.01 0.01 0.01 0.01 0.01 0.01 0.01 0.01 0.01 0.01 0.01 0.01 0.01 0.01 0.01 0.01 0.01 0.01 0.01 0.02 0.04 0.06 0.07 0.07
0.01 0.02 0.01 0.01 0.01 0.00 0.00 0.01 0.01 0.00 0.00 0.00 0.00 0.00 0.01 0.02 0.02 0.01 0.00 0.00 0.00 0.00 0.01 0.01 0.01 0.01 0.01 0.01 0.01 0.01 0.01 0.01 0.01 0.01 0.01 0.01 0.01 0.01 0.01 0.01 0.01 0.01 0.02 0.02 0.02 0.02 0.03 0.03 0.05
0.00 0.01 0.01 0.01 0.01 0.01 0.00 0.01 0.01 0.00 0.00 0.00 0.00 0.00 0.00 0.01 0.02 0.02 0.00 0.00 0.00 0.00 0.01 0.01 0.00 0.00 0.01 0.01 0.01 0.01 0.01 0.01 0.01 0.01 0.01 0.01 0.02 0.02 0.01 0.02 0.02 0.02 0.02 0.02 0.03 0.03 0.02 0.02 0.03
0.00 0.00 0.01 0.01 0.01 0.01 0.01 0.01 0.01 0.00 0.00 0.00 0.00 0.00 0.00 0.01 0.02 0.02 0.01 0.00 0.00 0.00 0.01 0.01 0.01 0.01 0.01 0.01 0.00 0.01 0.01 0.01 0.01 0.01 0.01 0.01 0.02 0.02 0.02 0.03 0.03 0.02 0.02 0.02 0.02 0.03 0.03 0.03 0.02
0.00 0.00 0.00 0.01 0.01 0.01 0.01 0.01 0.01 0.00 0.00 0.00 0.00 0.00 0.00 0.00 0.02 0.03 0.01 0.00 0.00 0.00 0.01 0.01 0.01 0.01 0.01 0.01 0.01 0.01 0.01 0.01 0.01 0.02 0.02 0.02 0.02 0.02 0.03 0.03 0.03 0.03 0.02 0.02 0.03 0.03 0.03 0.03 0.03
MSLP
1016.35 1016.46 1016.78 1017.30 1017.97 1018.71 1019.46 1020.12 1020.63 1020.98 1021.17 1021.24 1021.25 1021.25 1021.29 1021.38 1021.51 1021.66 1021.78 1021.83 1021.79 1021.65 1021.43 1021.16 1020.85 1020.53 1020.20 1019.86 1019.51 1019.13 1018.74 1018.35 1017.99 1017.68 1017.46 1017.33 1017.29 1017.33 1017.41 1017.50 1017.58 1017.63 1017.66 1017.68 1017.70 1017.75 1017.82 1017.89 1017.95
1016.51 1016.72 1017.14 1017.75 1018.47 1019.25 1019.99 1020.61 1021.06 1021.33 1021.45 1021.47 1021.44 1021.43 1021.48 1021.60 1021.77 1021.95 1022.09 1022.15 1022.12 1021.97 1021.74 1021.44 1021.10 1020.74 1020.38 1020.00 1019.62 1019.22 1018.81 1018.41 1018.04 1017.74 1017.53 1017.42 1017.40 1017.45 1017.54 1017.63 1017.70 1017.74 1017.75 1017.76 1017.79 1017.84 1017.92 1018.01 1018.09
1016.74 1017.05 1017.55 1018.21 1018.96 1019.72 1020.41 1020.96 1021.34 1021.53 1021.59 1021.56 1021.52 1021.52 1021.60 1021.76 1021.98 1022.20 1022.37 1022.46 1022.43 1022.29 1022.05 1021.74 1021.39 1021.02 1020.64 1020.25 1019.85 1019.43 1019.01 1018.60 1018.23 1017.93 1017.72 1017.61 1017.58 1017.62 1017.69 1017.75 1017.79 1017.81 1017.80 1017.79 1017.81 1017.87 1017.96 1018.08 1018.18
1017.05 1017.45 1018.01 1018.70 1019.44 1020.15 1020.76 1021.22 1021.50 1021.61 1021.61 1021.55 1021.51 1021.54 1021.66 1021.86 1022.11 1022.37 1022.57 1022.68 1022.67 1022.55 1022.32 1022.02 1021.68 1021.32 1020.95 1020.56 1020.16 1019.74 1019.31 1018.90 1018.53 1018.22 1018.00 1017.87 1017.83 1017.83 1017.86 1017.89 1017.89 1017.87 1017.84 1017.82 1017.83 1017.89 1017.99 1018.12 1018.25
1017.45 1017.93 1018.54 1019.23 1019.93 1020.56 1021.07 1021.42 1021.60 1021.63 1021.58 1021.50 1021.47 1021.51 1021.66 1021.89 1022.18 1022.45 1022.67 1022.79 1022.79 1022.69 1022.49 1022.22 1021.92 1021.59 1021.25 1020.89 1020.51 1020.10 1019.69 1019.28 1018.91 1018.59 1018.36 1018.20 1018.12 1018.09 1018.07 1018.06 1018.02 1017.97 1017.91 1017.88 1017.88 1017.94 1018.05 1018.18 1018.32
1017.95 1018.50 1019.14 1019.81 1020.45 1020.99 1021.39 1021.62 1021.69 1021.65 1021.55 1021.45 1021.42 1021.48 1021.65 1021.89 1022.18 1022.45 1022.67 1022.78 1022.79 1022.71 1022.54 1022.32 1022.07 1021.79 1021.50 1021.18 1020.84 1020.47 1020.08 1019.69 1019.32 1019.01 1018.76 1018.58 1018.47 1018.39 1018.34 1018.28 1018.21 1018.14 1018.07 1018.02 1018.01 1018.06 1018.16 1018.28 1018.41
1018.55 1019.15 1019.80 1020.44 1020.99 1021.43 1021.70 1021.81 1021.79 1021.68 1021.54 1021.43 1021.40 1021.47 1021.64 1021.88 1022.15 1022.39 1022.58 1022.68 1022.70 1022.63 1022.49 1022.32 1022.13 1021.91 1021.68 1021.43 1021.13 1020.81 1020.45 1020.09 1019.75 1019.44 1019.20 1019.00 1018.87 1018.76 1018.68 1018.59 1018.50 1018.40 1018.32 1018.26 1018.24 1018.27 1018.34 1018.43 1018.51
1019.21 1019.85 1020.49 1021.07 1021.53 1021.85 1022.00 1022.00 1021.88 1021.71 1021.54 1021.42 1021.39 1021.47 1021.63 1021.85 1022.08 1022.30 1022.45 1022.53 1022.54 1022.49 1022.39 1022.27 1022.13 1021.99 1021.82 1021.62 1021.38 1021.10 1020.80 1020.48 1020.17 1019.89 1019.65 1019.47 1019.32 1019.19 1019.08 1018.97 1018.86 1018.75 1018.66 1018.59 1018.55 1018.55 1018.58 1018.61 1018.64
1019.88 1020.53 1021.14 1021.65 1022.01 1022.20 1022.23 1022.12 1021.93 1021.70 1021.51 1021.38 1021.36 1021.43 1021.59 1021.79 1021.99 1022.17 1022.29 1022.36 1022.37 1022.34 1022.28 1022.21 1022.13 1022.05 1021.93 1021.79 1021.60 1021.37 1021.12 1020.84 1020.58 1020.34 1020.13 1019.96 1019.81 1019.68 1019.55 1019.43 1019.30 1019.18 1019.07 1018.98 1018.92 1018.89 1018.86 1018.83 1018.79
1020.50 1021.14 1021.70 1022.12 1022.37 1022.43 1022.34 1022.13 1021.86 1021.59 1021.38 1021.26 1021.25 1021.33 1021.48 1021.66 1021.84 1022.00 1022.11 1022.17 1022.20 1022.20 1022.20 1022.19 1022.17 1022.13 1022.07 1021.96 1021.82 1021.63 1021.43 1021.20 1020.99 1020.79 1020.63 1020.48 1020.34 1020.21 1020.07 1019.93 1019.78 1019.64 1019.51 1019.41 1019.32 1019.24 1019.16 1019.07 1018.95
1021.02 1021.63 1022.12 1022.43 1022.55 1022.50 1022.29 1021.99 1021.65 1021.35 1021.13 1021.02 1021.01 1021.10 1021.25 1021.43 1021.61 1021.76 1021.88 1021.97 1022.04 1022.10 1022.15 1022.20 1022.24 1022.26 1022.23 1022.16 1022.05 1021.90 1021.73 1021.56 1021.40 1021.25 1021.13 1021.01 1020.89 1020.75 1020.60 1020.44 1020.26 1020.10 1019.95 1019.82 1019.71 1019.60 1019.48 1019.33 1019.15
1021.43 1021.98 1022.37 1022.57 1022.57 1022.39 1022.07 1021.69 1021.30 1020.97 1020.74 1020.64 1020.65 1020.75 1020.91 1021.10 1021.28 1021.45 1021.59 1021.73 1021.86 1021.99 1022.12 1022.24 1022.35 1022.41 1022.43 1022.39 1022.30 1022.18 1022.04 1021.91 1021.80 1021.70 1021.62 1021.53 1021.43 1021.30 1021.13 1020.94 1020.73 1020.54 1020.36 1020.21 1020.07 1019.94 1019.79 1019.61 1019.40
1021.72 1022.19 1022.49 1022.58 1022.45 1022.15 1021.74 1021.28 1020.84 1020.49 1020.26 1020.17 1020.19 1020.30 1020.47 1020.66 1020.86 1021.05 1021.24 1021.43 1021.63 1021.84 1022.06 1022.27 1022.44 1022.56 1022.61 1022.60 1022.54 1022.44 1022.34 1022.25 1022.18 1022.13 1022.09 1022.04 1021.95 1021.82 1021.63 1021.42 1021.18 1020.95 1020.74 1020.56 1020.41 1020.26 1020.11 1019.92 1019.68
1021.94 1022.33 1022.52 1022.50 1022.26 1021.86 1021.36 1020.84 1020.37 1020.00 1019.78 1019.68 1019.71 1019.83 1020.00 1020.19 1020.39 1020.60 1020.82 1021.07 1021.34 1021.63 1021.93 1022.22 1022.47 1022.65 1022.75 1022.78 1022.74 1022.67 1022.60 1022.55 1022.52 1022.52 1022.52 1022.50 1022.43 1022.31 1022.12 1021.87 1021.61 1021.34 1021.10 1020.90 1020.73 1020.58 1020.42 1020.23 1020.01
1022.15 1022.46 1022.55 1022.41 1022.08 1021.59 1021.03 1020.47 1019.97 1019.61 1019.38 1019.30 1019.33 1019.44 1019.60 1019.78 1019.97 1020.17 1020.40 1020.67 1020.99 1021.34 1021.72 1022.08 1022.40 1022.64 1022.80 1022.87 1022.87 1022.84 1022.80 1022.79 1022.81 1022.86 1022.90 1022.92 1022.89 1022.78 1022.59 1022.33 1022.04 1021.75 1021.48 1021.26 1021.07 1020.91 1020.75 1020.56 1020.34
1022.40 1022.62 1022.62 1022.39 1021.98 1021.43 1020.82 1020.23 1019.74 1019.38 1019.17 1019.10 1019.14 1019.24 1019.38 1019.52 1019.67 1019.84 1020.05 1020.31 1020.63 1021.01 1021.43 1021.84 1022.22 1022.52 1022.74 1022.87 1022.92 1022.94 1022.95 1022.99 1023.06 1023.15 1023.25 1023.31 1023.32 1023.23 1023.06 1022.81 1022.52 1022.20 1021.91 1021.66 1021.44 1021.26 1021.09 1020.90 1020.68
1022.73 1022.86 1022.77 1022.47 1021.98 1021.39 1020.76 1020.17 1019.69 1019.37 1019.19 1019.14 1019.19 1019.29 1019.40 1019.51 1019.61 1019.71 1019.86 1020.06 1020.35 1020.71 1021.12 1021.56 1021.98 1022.33 1022.60 1022.79 1022.91 1022.99 1023.06 1023.15 1023.27 1023.42 1023.57 1023.68 1023.74 1023.70 1023.56 1023.34 1023.05 1022.73 1022.42 1022.13 1021.89 1021.67 1021.47 1021.26 1021.02
1023.12 1023.17 1023.00 1022.62 1022.09 1021.47 1020.83 1020.27 1019.82 1019.54 1019.42 1019.42 1019.50 1019.61 1019.71 1019.79 1019.82 1019.85 1019.91 1020.02 1020.22 1020.52 1020.89 1021.31 1021.73 1022.12 1022.45 1022.70 1022.89 1023.04 1023.17 1023.32 1023.49 1023.69 1023.89 1024.06 1024.17 1024.18 1024.09 1023.91 1023.64 1023.33 1023.01 1022.70 1022.42 1022.16 1021.91 1021.65 1021.37
1023.54 1023.51 1023.26 1022.83 1022.26 1021.62 1020.99 1020.46 1020.07 1019.85 1019.79 1019.87 1020.01 1020.17 1020.29 1020.34 1020.34 1020.29 1020.25 1020.25 1020.34 1020.53 1020.82 1021.19 1021.59 1021.99 1022.35 1022.66 1022.92 1023.13 1023.33 1023.54 1023.76 1024.00 1024.25 1024.46 1024.62 1024.69 1024.66 1024.52 1024.29 1024.00 1023.68 1023.35 1023.03 1022.73 1022.42 1022.11 1021.78
1023.93 1023.82 1023.52 1023.04 1022.44 1021.79 1021.17 1020.67 1020.33 1020.19 1020.22 1020.39 1020.62 1020.86 1021.04 1021.13 1021.11 1021.01 1020.89 1020.78 1020.74 1020.81 1020.99 1021.27 1021.63 1022.02 1022.40 1022.76 1023.07 1023.35 1023.60 1023.85 1024.12 1024.39 1024.66 1024.91 1025.10 1025.22 1025.24 1025.15 1024.97 1024.72 1024.41 1024.08 1023.73 1023.38 1023.02 1022.66 1022.28
1024.24 1024.07 1023.72 1023.20 1022.58 1021.92 1021.31 1020.83 1020.53 1020.46 1020.58 1020.86 1021.21 1021.57 1021.85 1022.02 1022.05 1021.95 1021.78 1021.59 1021.44 1021.39 1021.45 1021.64 1021.93 1022.28 1022.67 1023.05 1023.40 1023.73 1024.02 1024.31 1024.59 1024.87 1025.14 1025.40 1025.61 1025.76 1025.82 1025.78 1025.65 1025.43 1025.15 1024.82 1024.47 1024.09 1023.71 1023.31 1022.89
1024.45 1024.24 1023.85 1023.31 1022.66 1021.98 1021.37 1020.89 1020.62 1020.60 1020.80 1021.18 1021.67 1022.17 1022.60 1022.90 1023.03 1022.99 1022.83 1022.60 1022.38 1022.23 1022.19 1022.28 1022.49 1022.80 1023.17 1023.56 1023.94 1024.29 1024.61 1024.90 1025.18 1025.44 1025.70 1025.93 1026.14 1026.29 1026.37 1026.37 1026.27 1026.10 1025.85 1025.55 1025.21 1024.83 1024.44 1024.03 1023.61
1024.57 1024.34 1023.93 1023.37 1022.70 1022.00 1021.35 1020.85 1020.57 1020.57 1020.82 1021.29 1021.90 1022.56 1023.17 1023.63 1023.91 1024.00 1023.91 1023.71 1023.47 1023.26 1023.14 1023.15 1023.29 1023.55 1023.89 1024.27 1024.65 1025.01 1025.33 1025.62 1025.87 1026.09 1026.30 1026.50 1026.67 1026.80 1026.88 1026.88 1026.82 1026.68 1026.47 1026.20 1025.89 1025.54 1025.17 1024.79 1024.39
1024.62 1024.40 1024.00 1023.43 1022.73 1021.99 1021.29 1020.73 1020.40 1020.37 1020.63 1021.16 1021.88 1022.68 1023.47 1024.14 1024.61 1024.86 1024.90 1024.79 1024.59 1024.37 1024.22 1024.17 1024.26 1024.47 1024.78 1025.13 1025.50 1025.85 1026.16 1026.41 1026.62 1026.79 1026.94 1027.07 1027.18 1027.26 1027.31 1027.32 1027.26 1027.15 1026.97 1026.73 1026.46 1026.15 1025.82 1025.48 1025.13
1024.65 1024.45 1024.06 1023.49 1022.77 1021.97 1021.20 1020.55 1020.14 1020.03 1020.27 1020.81 1021.60 1022.53 1023.48 1024.35 1025.04 1025.49 1025.72 1025.74 1025.63 1025.47 1025.32 1025.26 1025.31 1025.48 1025.75 1026.07 1026.42 1026.74 1027.01 1027.23 1027.38 1027.49 1027.56 1027.61 1027.65 1027.68 1027.69 1027.67 1027.60 1027.49 1027.33 1027.12 1026.88 1026.61 1026.33 1026.04 1025.75
1024.68 1024.51 1024.14 1023.56 1022.80 1021.94 1021.08 1020.32 1019.79 1019.59 1019.76 1020.28 1021.10 1022.13 1023.23 1024.29 1025.19 1025.87 1026.29 1026.50 1026.52 1026.45 1026.35 1026.30 1026.34 1026.48 1026.72 1027.01 1027.32 1027.60 1027.84 1028.00 1028.10 1028.14 1028.14 1028.11 1028.08 1028.05 1028.00 1027.94 1027.85 1027.73 1027.57 1027.37 1027.14 1026.89 1026.64 1026.40 1026.16
1024.70 1024.54 1024.18 1023.59 1022.79 1021.87 1020.91 1020.04 1019.40 1019.09 1019.17 1019.64 1020.47 1021.56 1022.78 1024.00 1025.10 1025.99 1026.64 1027.03 1027.22 1027.27 1027.26 1027.25 1027.30 1027.42 1027.63 1027.88 1028.14 1028.38 1028.57 1028.69 1028.73 1028.71 1028.64 1028.56 1028.46 1028.36 1028.27 1028.16 1028.04 1027.88 1027.70 1027.48 1027.24 1026.99 1026.75 1026.52 1026.32
1024.67 1024.51 1024.13 1023.51 1022.67 1021.68 1020.64 1019.68 1018.94 1018.54 1018.54 1018.98 1019.80 1020.92 1022.23 1023.59 1024.86 1025.95 1026.79 1027.37 1027.73 1027.92 1028.00 1028.05 1028.12 1028.25 1028.42 1028.63 1028.85 1029.04 1029.18 1029.24 1029.24 1029.17 1029.06 1028.92 1028.78 1028.64 1028.49 1028.34 1028.18 1027.98 1027.75 1027.50 1027.22 1026.94 1026.67 1026.43 1026.22
1024.51 1024.31 1023.89 1023.23 1022.35 1021.32 1020.24 1019.23 1018.44 1017.99 1017.96 1018.36 1019.19 1020.34 1021.71 1023.17 1024.57 1025.81 1026.82 1027.58 1028.09 1028.41 1028.59 1028.71 1028.81 1028.93 1029.08 1029.25 1029.42 1029.56 1029.64 1029.66 1029.62 1029.51 1029.37 1029.21 1029.04 1028.87 1028.69 1028.50 1028.29 1028.05 1027.77 1027.46 1027.12 1026.78 1026.46 1026.17 1025.93
1024.19 1023.90 1023.41 1022.70 1021.80 1020.75 1019.68 1018.69 1017.92 1017.49 1017.48 1017.91 1018.75 1019.93 1021.35 1022.87 1024.36 1025.71 1026.84 1027.72 1028.36 1028.79 1029.06 1029.24 1029.37 1029.49 1029.61 1029.74 1029.86 1029.94 1029.98 1029.95 1029.87 1029.75 1029.59 1029.41 1029.23 1029.04 1028.85 1028.64 1028.40 1028.11 1027.78 1027.40 1026.99 1026.58 1026.19 1025.83 1025.53
Thickness
5708 5710 5713 5714 5708 5702 5697 5698 5701 5699 5701 5703 5704 5706 5705 5702 5699 5692 5693 5697 5699 5700 5698 5696 5696 5696 5696 5696 5696 5696 5696 5697 5697 5697 5698 5697 5698 5698 5699 5699 5699 5700 5700 5701 5701 5701 5702 5702 5703
5706 5708 5709 5707 5699 5693 5692 5696 5694 5695 5696 5697 5699 5699 5698 5694 5692 5689 5688 5690 5692 5693 5693 5692 5691 5691 5691 5691 5692 5692 5692 5692 5693 5693 5694 5694 5694 5694 5695 5695 5696 5696 5697 5697 5697 5698 5698 5699 5699
5703 5705 5702 5698 5692 5693 5690 5691 5691 5690 5691 5691 5691 5691 5688 5682 5681 5680 5680 5682 5685 5686 5687 5686 5685 5685 5686 5686 5687 5687 5687 5688 5689 5689 5689 5690 5690 5690 5691 5691 5691 5692 5692 5693 5693 5693 5694 5695 5695
5699 5698 5695 5690 5683 5684 5686 5686 5685 5685 5685 5685 5686 5681 5677 5670 5670 5671 5674 5676 5679 5680 5680 5679 5679 5679 5680 5680 5681 5682 5682 5683 5683 5684 5685 5685 5686 5686 5686 5686 5687 5688 5688 5689 5689 5689 5690 5690 5691
5694 5691 5684 5678 5677 5678 5679 5678 5678 5679 5678 5676 5678 5674 5668 5663 5663 5665 5667 5669 5672 5672 5673 5672 5672 5672 5673 5674 5675 5675 5676 5677 5678 5679 5679 5680 5681 5681 5681 5682 5682 5683 5684 5684 5685 5685 5685 5686 5686
5684 5684 5678 5674 5673 5673 5672 5670 5671 5671 5670 5667 5667 5667 5660 5654 5655 5657 5660 5661 5663 5664 5665 5665 5665 5665 5666 5667 5668 5669 5670 5671 5672 5672 5673 5674 5675 5675 5676 5677 5677 5678 5679 5680 5680 5680 5681 5681 5682
5677 5675 5671 5670 5667 5665 5662 5663 5662 5663 5660 5655 5657 5658 5654 5647 5645 5647 5650 5652 5654 5655 5657 5657 5658 5658 5659 5660 5661 5662 5663 5664 5665 5666 5667 5668 5669 5669 5670 5671 5672 5673 5674 5675 5675 5676 5676 5676 5677
5672 5668 5661 5661 5659 5656 5653 5653 5650 5650 5647 5644 5644 5643 5640 5635 5636 5638 5642 5644 5645 5646 5647 5648 5650 5651 5652 5653 5653 5655 5656 5657 5658 5659 5660 5661 5662 5663 5664 5665 5666 5667 5668 5669 5670 5670 5671 5671 5672
5663 5658 5654 5653 5651 5646 5644 5643 5638 5636 5636 5631 5627 5625 5623 5624 5627 5631 5633 5634 5635 5636 5637 5639 5641 5642 5644 5646 5646 5648 5649 5650 5651 5652 5653 5654 5656 5657 5658 5659 5659 5661 5662 5663 5663 5665 5666 5666 5666
5652 5648 5644 5641 5642 5637 5632 5630 5628 5628 5624 5621 5617 5614 5614 5616 5619 5621 5622 5623 5624 5626 5627 5629 5631 5633 5635 5637 5638 5640 5641 5642 5643 5644 5645 5647 5649 5650 5651 5651 5653 5654 5655 5656 5657 5659 5660 5661 5663
5638 5635 5630 5628 5627 5625 5621 5615 5615 5617 5612 5608 5606 5604 5604 5606 5608 5609 5609 5611 5613 5614 5616 5618 5620 5623 5625 5627 5629 5630 5632 5633 5634 5635 5637 5639 5641 5642 5644 5645 5646 5648 5649 5651 5652 5653 5656 5657 5659
5624 5618 5618 5616 5613 5612 5610 5606 5601 5599 5596 5595 5594 5593 5593 5594 5595 5596 5597 5599 5601 5603 5605 5608 5610 5612 5614 5617 5619 5620 5622 5623 5624 5626 5627 5630 5632 5634 5636 5638 5640 5641 5643 5645 5646 5648 5650 5652 5653
5614 5607 5603 5601 5599 5597 5594 5592 5589 5584 5584 5583 5582 5582 5582 5582 5582 5583 5585 5588 5590 5592 5593 5596 5599 5601 5603 5605 5608 5610 5611 5613 5614 5615 5617 5620 5623 5625 5627 5630 5631 5634 5635 5637 5640 5642 5644 5646 5647
5604 5599 5595 5593 5591 5588 5585 5581 5578 5573 5572 5572 5571 5571 5570 5570 5570 5572 5573 5575 5578 5580 5582 5584 5587 5589 5591 5594 5596 5598 5600 5601 5603 5605 5607 5610 5612 5615 5618 5621 5623 5625 5628 5630 5632 5634 5636 5638 5640
5596 5593 5589 5585 5582 5578 5579 5572 5564 5562 5561 5561 5560 5559 5558 5557 5557 5558 5559 5560 5563 5566 5569 5572 5575 5577 5580 5582 5584 5586 5588 5590 5592 5594 5596 5599 5601 5604 5608 5611 5613 5616 5618 5621 5623 5626 5628 5629 5631
5591 5590 5586 5576 5571 5569 5572 5567 5553 5550 5551 5551 5548 5547 5546 5545 5545 5545 5546 5547 5550 5553 5556 5559 5562 5565 5567 5569 5571 5574 5575 5577 5580 5582 5585 5587 5590 5593 5596 5600 5603 5606 5608 5612 5614 5617 5619 5621 5623
5585 5583 5579 5569 5559 5558 5559 5553 5541 5538 5538 5538 5536 5534 5534 5533 5533 5532 5533 5534 5537 5539 5542 5545 5548 5551 5554 5556 5558 5560 5563 5565 5567 5570 5573 5575 5578 5581 5585 5589 5592 5595 5598 5602 5605 5608 5610 5612 5613
5576 5573 5566 5561 5549 5545 5543 5537 5531 5526 5525 5524 5523 5523 5521 5520 5519 5519 5520 5521 5523 5526 5529 5532 5535 5537 5540 5542 5545 5548 5550 5553 5555 5557 5560 5563 5566 5569 5574 5577 5581 5584 5588 5591 5595 5598 5600 5603 5604
5558 5557 5555 5549 5536 5531 5530 5526 5522 5517 5513 5511 5511 5510 5509 5507 5506 5506 5507 5509 5511 5513 5516 5518 5521 5523 5525 5528 5532 5535 5538 5540 5543 5544 5547 5551 5554 5557 5561 5565 5569 5573 5577 5580 5584 5587 5590 5593 5594
5545 5544 5542 5535 5523 5519 5518 5514 5510 5505 5500 5497 5495 5495 5494 5493 5494 5494 5495 5496 5498 5500 5501 5504 5506 5508 5511 5513 5516 5519 5523 5526 5529 5531 5534 5538 5542 5545 5549 5553 5557 5560 5564 5568 5572 5575 5579 5582 5585
5533 5531 5527 5521 5513 5508 5506 5512 5503 5495 5487 5483 5481 5479 5478 5478 5479 5480 5481 5482 5484 5485 5487 5489 5492 5494 5496 5499 5502 5505 5510 5513 5517 5520 5523 5526 5529 5532 5536 5540 5544 5548 5551 5556 5559 5563 5567 5571 5574
5524 5515 5509 5506 5508 5514 5504 5515 5505 5489 5478 5473 5469 5467 5466 5465 5465 5466 5466 5468 5469 5470 5472 5474 5477 5480 5482 5485 5488 5491 5496 5500 5504 5506 5510 5513 5516 5520 5523 5528 5532 5535 5539 5543 5547 5551 5555 5559 5563
5508 5501 5499 5499 5499 5498 5496 5495 5505 5479 5472 5464 5458 5454 5452 5451 5451 5451 5451 5452 5454 5455 5457 5460 5463 5466 5468 5471 5474 5477 5481 5485 5489 5492 5496 5500 5504 5507 5510 5514 5519 5523 5526 5530 5534 5538 5543 5547 5551
5493 5494 5494 5490 5491 5491 5492 5489 5496 5472 5461 5454 5446 5441 5438 5438 5438 5438 5438 5439 5440 5442 5444 5446 5449 5452 5454 5457 5460 5462 5466 5470 5474 5479 5482 5487 5491 5494 5497 5500 5505 5509 5513 5517 5520 5524 5529 5534 5538
5487 5492 5496 5495 5492 5497 5478 5475 5473 5454 5443 5438 5432 5428 5426 5425 5425 5425 5425 5426 5427 5428 5430 5433 5435 5438 5441 5443 5445 5448 5451 5455 5459 5463 5467 5472 5476 5480 5483 5486 5491 5495 5499 5503 5506 5511 5516 5521 5525
5475 5477 5480 5482 5491 5492 5472 5469 5458 5434 5427 5423 5419 5415 5413 5412 5412 5411 5411 5412 5413 5414 5416 5419 5421 5424 5427 5429 5431 5434 5437 5441 5444 5448 5452 5456 5460 5465 5469 5472 5477 5481 5485 5489 5493 5498 5502 5507 5512
5467 5463 5455 5457 5456 5457 5472 5456 5436 5423 5417 5412 5408 5405 5402 5400 5399 5398 5398 5398 5399 5400 5402 5404 5407 5410 5412 5415 5418 5420 5423 5427 5430 5433 5437 5441 5445 5450 5455 5459 5463 5468 5472 5476 5480 5485 5489 5494 5499
5452 5449 5446 5445 5447 5459 5467 5458 5449 5419 5411 5404 5398 5394 5390 5388 5387 5386 5385 5385 5386 5387 5388 5390 5393 5395 5398 5401 5404 5407 5410 5413 5416 5420 5424 5428 5432 5436 5441 5446 5451 5455 5460 5464 5467 5472 5476 5480 5486
5441 5435 5435 5436 5432 5438 5449 5453 5421 5411 5400 5391 5386 5382 5377 5376 5374 5373 5372 5372 5372 5373 5375 5377 5380 5382 5385 5387 5390 5394 5398 5401 5404 5409 5413 5416 5420 5424 5428 5433 5438 5443 5448 5452 5456 5460 5464 5469 5473
5427 5426 5424 5425 5420 5415 5422 5429 5400 5393 5384 5378 5374 5370 5367 5364 5362 5360 5360 5360 5361 5361 5363 5365 5367 5369 5372 5375 5378 5382 5386 5389 5393 5397 5401 5405 5409 5413 5416 5421 5427 5431 5436 5440 5444 5448 5452 5457 5462